map of TLM home
TLM - Airport
Location
City:  Tlemcen, Tlemcen, Algeria
Name:Zenata-Messali El Hadj Airport
ICAO:DAON
IATA:TLM

Details
Type:Airport (Aerodrome, Airfield)
Use:Public/Civil, International (customs port of entry)
Latitude:3500'55"N (35.015278)
Longitude:127'03"W (-1.450832)
Elevation:814 ft (248 m)
Variation:0.05E (WMM2015 magnetic declination)
0.11 annual change
Runways:1
Longest:8530 × 148 ft (2600 × 45 m)

Time
Time Zone:UTC+1
Local Time:

Weather
METAR:DAON 201430Z 27014KT 8000 FEW010 BKN026 FEW030CB 14/11 Q1011
TAF:DAON 201100Z 2012/2112 22020KT 9999 BKN026
TEMPO 2014/2020 RA
TEMPO 2020/2104 26020G30KT 6000 TSRA SCT023 FEW026CB BKN026
TEMPO 2022/2103 TSSHRA

Related Locations
Nearby:
Farthest:NZOX: 12248 mi / 19712 km
Okiwi Station, AUK, NZ

Find:

   beyond  
but within

Other Information
Maps:
NOTAMs:
Links:
Sources:

  
  • flag of Algeria
  

Sectional Chart

Flight Planning
at skyvector.com

Satellite Image

Google Maps Satellite view

 

Copyright © 2004-2019 Karl L. Swartz. All rights reserved.
The Great Circle Mapper name and logo are trademarks of the Great Circle Mapper.
All other trademarks mentioned herein belong to their respective owners.
Please see credits for attibutions and further copyright information.

  Follow gcmap on Facebook Follow gcmap on Twitter Follow gcmap on Google+ GCmap on LinkedIn

hCard Microformat

Geo Microformat